Weather History for Fort Myers, FL

Change the Weather History Date:

Wednesday, February 20, 2013

  Actual Average Record
Temperature  
Mean Temperature 21 °C 19 °C  
Max Temperature 28 °C 26 °C 31 °C (1989)
Min Temperature 13 °C 14 °C 2 °C (1960)
Degree Days  
Heating Degree Days 0 2  
Month to date heating degree days 44 46  
Since 1 July heating degree days 116 247  
Cooling Degree Days 5 4  
Month to date cooling degree days 66 70  
Year to date cooling degree days 242 153  
Growing Degree Days 19 (Base 50)    
Moisture  
Dew Point 14 °C    
Average Humidity 78    
Maximum Humidity 100    
Minimum Humidity 36    
Precipitation  
Precipitation 0.00 mm 2.03 mm 12.85 mm (1902)
Month to date precipitation 1.84 1.49  
Year to date precipitation 2.46 3.43  
Sea Level Pressure  
Sea Level Pressure 1019 hPa    
Wind  
Wind Speed 6 km/h (North)    
Max Wind Speed 21 km/h    
Max Gust Speed 27 km/h    
Visibility 12 kilometers    
Events Fog    
T = Trace of Precipitation, MM = Missing Value Source: NWS Daily Summary

Daily Weather History Graph

Daily Weather History Graph

Search for Another Location

Airport:

Trip Planner

Search our weather history database for the weather conditions in past years. The results will help you decide how hot, cold, wet, or windy it might be!

Date:

Astronomy

Feb. 20, 2013 Rise Set
Actual Time 6:59 AM EST 6:23 PM EST
Civil Twilight 6:35 AM EST 6:46 PM EST
Nautical Twilight 6:08 AM EST 7:14 PM EST
Astronomical Twilight 5:41 AM EST 7:40 PM EST
Moon 1:59 PM EST (2/20) 3:01 AM EST (2/20)
Length of Visible Light 12h 11m
Length of Day
11h 24m
Waxing Gibbous, 76% of the Moon is Illuminated
Feb 20
Waxing Gibbous
Feb 25
Full
Mar 4
Last Quarter
Mar 11
New
Mar 19
First Quarter

Hourly Weather History & Observations

Time (EST) Temp. Dew Point Humidity Pressure Visibility Wind Dir Wind Speed Gust Speed Precip Events Conditions
12:53 AM 16.7 °C 15.0 °C 90% 1019.4 hPa 16.1 km Calm Calm - N/A   Clear
1:53 AM 16.1 °C 15.0 °C 93% 1019.2 hPa 4.0 km Calm Calm - N/A   Clear
2:03 AM 16.0 °C 14.0 °C 88% 1018.8 hPa 16.1 km Calm Calm - N/A   Clear
2:53 AM 15.6 °C 13.9 °C 90% 1018.8 hPa 11.3 km Calm Calm - N/A   Partly Cloudy
3:27 AM 15.0 °C 14.0 °C 94% 1018.2 hPa 12.9 km Calm Calm - N/A   Partly Cloudy
3:53 AM 15.0 °C 13.9 °C 93% 1018.7 hPa 14.5 km Calm Calm - N/A   Clear
4:02 AM 15.0 °C 14.0 °C 94% 1018.5 hPa 14.5 km Calm Calm - N/A   Scattered Clouds
4:11 AM 15.0 °C 14.0 °C 94% 1018.2 hPa 12.9 km Calm Calm - N/A   Mostly Cloudy
4:33 AM 15.0 °C 14.0 °C 94% 1018.2 hPa 6.4 km Calm Calm - N/A   Overcast
4:36 AM 15.0 °C 14.0 °C 94% 1018.2 hPa 2.0 km Calm Calm - N/A   Overcast
4:43 AM 14.0 °C 14.0 °C 100% 1018.2 hPa 0.4 km Calm Calm - N/A Fog Fog
4:53 AM 14.4 °C 13.9 °C 97% 1018.5 hPa 0.4 km Calm Calm - N/A Fog Fog
5:53 AM 14.4 °C 13.9 °C 97% 1019.1 hPa 0.4 km Calm Calm - N/A Fog Fog
6:53 AM 13.9 °C 13.3 °C 96% 1019.4 hPa 0.8 km Calm Calm - N/A Fog Fog
7:53 AM 14.4 °C 14.4 °C 100% 1019.7 hPa 0.8 km Calm Calm - N/A Fog Fog
8:23 AM 16.0 °C 16.0 °C 100% 1019.9 hPa 8.0 km Calm Calm - N/A   Clear
8:53 AM 18.3 °C 17.2 °C 93% 1020.0 hPa 16.1 km Calm Calm - N/A   Clear
9:53 AM 23.3 °C 15.0 °C 59% 1019.7 hPa 16.1 km Variable 5.6 km/h / 1.5 m/s - N/A   Clear
10:53 AM 25.0 °C 13.3 °C 48% 1019.8 hPa 16.1 km ENE 9.3 km/h / 2.6 m/s - N/A   Clear
11:53 AM 25.6 °C 13.3 °C 46% 1019.7 hPa 16.1 km NNE 7.4 km/h / 2.1 m/s - N/A   Clear
12:53 PM 26.1 °C 12.8 °C 44% 1018.1 hPa 16.1 km East 11.1 km/h / 3.1 m/s - N/A   Clear
2:53 PM 27.2 °C 11.1 °C 36% 1016.2 hPa 16.1 km Variable 7.4 km/h / 2.1 m/s - N/A   Clear
3:53 PM 27.2 °C 10.6 °C 35% 1016.1 hPa 16.1 km Variable 9.3 km/h / 2.6 m/s - N/A   Clear
4:53 PM 26.1 °C 14.4 °C 48% 1016.4 hPa 16.1 km West 16.7 km/h / 4.6 m/s - N/A   Clear
5:53 PM 24.4 °C 14.4 °C 54% 1017.2 hPa 16.1 km WNW 14.8 km/h / 4.1 m/s - N/A   Clear
6:53 PM 21.1 °C 16.7 °C 76% 1018.1 hPa 16.1 km WNW 13.0 km/h / 3.6 m/s - N/A   Clear
7:53 PM 20.6 °C 15.6 °C 73% 1018.1 hPa 16.1 km NW 7.4 km/h / 2.1 m/s - N/A   Clear
8:53 PM 20.0 °C 15.0 °C 73% 1018.4 hPa 16.1 km NNW 9.3 km/h / 2.6 m/s - N/A   Clear
9:53 PM 20.0 °C 15.0 °C 73% 1018.8 hPa 16.1 km North 11.1 km/h / 3.1 m/s - N/A   Clear
10:53 PM 19.4 °C 15.6 °C 79% 1018.8 hPa 16.1 km NE 9.3 km/h / 2.6 m/s - N/A   Clear
11:53 PM 18.9 °C 15.6 °C 81% 1018.3 hPa 16.1 km ENE 5.6 km/h / 1.5 m/s - N/A   Partly Cloudy